Location: Wald
(31.7579°N, 86.6655°W)
Time: 21:04:31
(UTC+00:00)

Cosmos 1544 - Pass Details

Date: 14 July 2020
Orbit: 473 x 490 km, 82.5° (Epoch: 13 August)

Event Time Altitude Azimuth Distance (km) Brightness Sun altitude
Exits shadow 09:17:25 44° 249° (WSW) 660 3.3 -17.6°
Maximum altitude 09:17:55 48° 278° (W) 623 3.3 -17.5°
Drops below altitude 10° 09:21:24 10° 354° (N) 1,642 6.2 -16.9°
Sets 09:23:33 0° 360° (N) 2,524 7.3 -16.6°
